Hourly Data Report for September 20, 2017

All times are specified in Local Standard Time (LST). Add 1 hour to adjust for Daylight Saving Time where and when it is observed.

PENTICTON A
BRITISH COLUMBIA

49°27'45.000" N
119°36'08.000" W
344.40 m
1126146
71889
YYF

Download Data

Hourly Data (September 2017)
Hourly Data Report for September 20, 2017
Temp Definition
°C
Dew Point Temp Definition
°C
Rel Hum Definition
%
Wind Dir Definition
10's deg

Wind Spd Definition
km/h
Visibility Definition
km
Stn Press Definition
kPa
Hmdx Definition


Wind Chill Definition


Weather Definition


TIME
00:00 Legend Double Dagger 4.3 3.8 96 2 8 24.1 96.34     LegendNANA
01:00 Legend Double Dagger 4.4 3.9 96 9 3 24.1 96.35     Mainly Clear
02:00 Legend Double Dagger 2.8 2.4 98 1 4 24.1 96.34     LegendNANA
03:00 Legend Double Dagger 2.5 2.2 98 3 4 24.1 96.35     LegendNANA
04:00 Legend Double Dagger 1.9 1.0 94 2 7 24.1 96.29     Mainly Clear
05:00 Legend Double Dagger 2.4 2.2 99 36 2 24.1 96.29     LegendNANA
06:00 Legend Double Dagger 0.7 0.5 99 36 1 24.1 96.32     LegendNANA
07:00 Legend Double Dagger 3.5 2.9 96 2 5 24.1 96.32     Mainly Clear
08:00 Legend Double Dagger 5.7 5.1 96 36 4 24.1 96.30     LegendNANA
09:00 Legend Double Dagger 9.6 5.3 74 15 4 24.1 96.28     LegendNANA
10:00 Legend Double Dagger 11.4 5.3 66 19 9 24.1 96.24     Mainly Clear
11:00 Legend Double Dagger 14.0 3.3 48 24 5 24.1 96.21     LegendNANA
12:00 Legend Double Dagger 15.0 3.7 47 36 2 24.1 96.17     LegendNANA
13:00 Legend Double Dagger 16.7 1.8 37 19 13 24.1 96.12     Mostly Cloudy
14:00 Legend Double Dagger 16.9 2.8 39 17 8 24.1 96.12     LegendNANA
15:00 Legend Double Dagger 16.6 2.7 39 21 11 24.1 96.13     LegendNANA
16:00 Legend Double Dagger 16.2 2.1 38 33 4 24.1 96.16     Mostly Cloudy
17:00 Legend Double Dagger 14.4 3.2 46 35 26 24.1 96.33     LegendNANA
18:00 Legend Double Dagger 12.6 4.0 56 4 21 24.1 96.41     Rain Showers
19:00 Legend Double Dagger 10.5 6.7 77 36 18 24.1 96.53     Rain Showers
20:00 Legend Double Dagger 9.5 6.5 81 33 8 24.1 96.63     Rain Showers
21:00 Legend Double Dagger 9.0 7.4 90   0 24.1 96.64     LegendNANA
22:00 Legend Double Dagger 8.8 7.6 92 36 3 24.1 96.69     Rain Showers
23:00 Legend Double Dagger 9.4 5.8 78 36 2 24.1 96.74     Rain Showers

Notes on Data Quality.

Legend

  • E = Estimated
  • M = Missing
  • NA = Not Available
  • ‡ = Partner data that is not subject to review by the National Climate Archives
Date modified: